Regional Weather Roundup
Issued by NWS

Home | Current Version | Previous Version | Text Only | Print | Product List | Glossary Off
Versions: 1 2 3 4 5 6 7 8 9 10 11 12 13 14 15 16 17 18 19 20 21 22 23 24 25 26 27 28 29 30 31 32 33 34 35 36 37 38 39 40 41 42 43 44 45 46 47 48 49 50

000
ASUS43 KLMK 050210
RWRKY
KENTUCKY REGIONAL WEATHER ROUNDUP
NATIONAL WEATHER SERVICE LOUISVILLE KY
1000 PM EDT SAT JUL 04 2015

NOTE "FAIR" INDICATES FEW OR NO CLOUDS BELOW 12,000 FEET
WITH NO SIGNIFICANT WEATHER AND/OR OBSTRUCTIONS TO VISIBILITY.

KYZ001>023-026-027-061>063-070>075-050300-
WESTERN AND SOUTH CENTRAL KENTUCKY

CITY           SKY/WX    TMP DP  RH WIND       PRES   REMARKS
PADUCAH        CLOUDY    72  69  90 CALM      29.98R
HENDERSON      CLOUDY    75  66  73 N3        29.97S
OWENSBORO      CLOUDY    77  71  81 CALM      29.99R
HOPKINSVILLE   CLOUDY    74  69  82 NE2       29.98S
BOWLING GREEN  CLOUDY    75  68  78 CALM      29.99R
GLASGOW        CLOUDY    74  70  87 CALM      29.99F
$$

KYZ024-025-028>034-038-045-046-053-050300-
NORTH CENTRAL KENTUCKY

CITY           SKY/WX    TMP DP  RH WIND       PRES   REMARKS
LOUISVILLE/SDF CLOUDY    79  67  66 E6        29.99R
LOUISVILLE/LOU CLOUDY    78  66  66 E3        30.00R
FORT KNOX      CLOUDY    72  69  92 CALM      29.99R
$$

KYZ035>037-039>044-047>052-055>060-089>105-050300-
NORTHEAST KENTUCKY

CITY           SKY/WX    TMP DP  RH WIND       PRES   REMARKS
LEXINGTON      CLOUDY    74  66  76 E8        30.02S
COVINGTON      MOCLDY    74  62  66 N6        30.03R
FRANKFORT      CLOUDY    73  66  78 NE3       30.01R
$$

KYZ054-064>069-076>088-106>120-050300-
SOUTHEAST KENTUCKY

CITY           SKY/WX    TMP DP  RH WIND       PRES   REMARKS
JACKSON        CLOUDY    71  67  87 CALM      30.05R
LONDON         CLOUDY    72  66  81 SE5       30.04R
SOMERSET       CLOUDY    72  72 100 CALM      30.04R
MIDDLESBORO    CLOUDY    72  69  89 CALM      30.06R
MONTICELLO     CLOUDY    73  73 100 SE5       30.05R FOG
$$




USA.gov is the U.S. government's official web portal to all federal, state and local government web resources and services.